[[{"header":{"parameterUnit":"m.s-1","parameterCategory":1,"la1":30.2991,"la2":30.254,"lo1":-89.0895,"lo2":-89.0444,"dy":0.0017,"dx":0.0017,"nx":28,"ny":28,"refTime":"2025-08-29T03:00:00:Z","depth":0,"parameterNumber":2,"parameterNumberName":"U-component_of_WINDS"},"data":[0,0,0,0,0,0,0,0,0,0,0,0,0,0,0,0,0,0,0,0,0,0,0,0,0,0,0,0,0,0,0,0,0,0,0,0,0,0,0,0,0,0,0,0,0,0,0,0,0,0,0,0,0,0,0,0,0,0,0.1516,0.1516,0,0.1563,0.1563,0.1564,0.1554,0.1553,0.1552,0.1552,0.1602,0.1604,0.1606,0,0,0,0,0,0,0,0,0,0,0,0,0,0.1421,0.1423,0.1515,0.1516,0.1517,0.1563,0.1563,0.1564,0.1554,0.1553,0.1552,0.1551,0.1601,0.1604,0.1606,0,0,0,0,0,0,0,0,0,0,0,0,0,0.1465,0.1423,0.1515,0.1517,0.1518,0.1563,0.1563,0.1564,0.1554,0.1553,0.1552,0.1551,0.16,0.1604,0.1607,0.1653,0,0,0.1617,0.1618,0,0,0,0,0,0,0,0,0.1462,0.1468,0.1516,0.1517,0.1518,0.1551,0.1549,0.1594,0.1555,0.1541,0.1551,0.155,0.1586,0.1591,0.1602,0.1656,0.1658,0.1617,0.1619,0.162,0.1621,0,0,0,0,0,0,0,0.1459,0.1466,0.1534,0.1517,0.1518,0.1517,0.1522,0.1557,0.157,0.1542,0.1541,0.1547,0.1586,0.1599,0.1604,0.1658,0.1617,0.162,0.1622,0.1623,0.1757,0.1758,0,0,0,0,0,0,0.1455,0.1464,0.1533,0.1536,0.1486,0.152,0.1525,0.1542,0.157,0.1573,0.1548,0.1546,0.1594,0.16,0.1605,0.1664,0.162,0.1623,0.1625,0.1755,0.1757,0.1759,0,0,0,0,0,0,0.1453,0.1461,0.1531,0.15,0.1508,0.1523,0.1542,0.1544,0.1556,0.1575,0.1577,0.1558,0.1594,0.1601,0.1642,0.1666,0.1625,0.1628,0.1753,0.1756,0.1758,0.1781,0,0,0,0,0,0,0.145,0.1461,0.1477,0.15,0.151,0.1566,0.1543,0.1545,0.1562,0.156,0.1585,0.1588,0.1593,0.1637,0.1646,0.167,0.163,0.1751,0.1754,0.1757,0.1778,0.1784,0.1789,0,0,0,0,0,0.1447,0.1481,0.1478,0.1486,0.1531,0.1567,0.1573,0.1578,0.1564,0.1581,0.1594,0.1587,0.1662,0.1642,0.1651,0.1676,0.175,0.1754,0.1757,0.1776,0.1783,0.1789,0,0,0,0,0,0,0.146,0.1484,0.1481,0.1523,0.1543,0.1565,0.1587,0.1584,0.1609,0.1606,0.1612,0.1618,0.1661,0.1672,0.165,0.1725,0.1704,0.171,0.1716,0.1722,0.1728,0.1724,0.1633,0,0,0,0,0,0.1468,0.1495,0.1514,0.155,0.156,0.1572,0.1588,0.159,0.1612,0.162,0.1635,0.1657,0.1686,0.1705,0.1732,0.178,0.1787,0.1803,0.1808,0.1812,0.1817,0.1848,0.1856,0.1771,0.1771,0.1771,0,0,0.1485,0.1501,0.1517,0.1553,0.1569,0.1598,0.1579,0.161,0.1632,0.1625,0.1666,0.1678,0.1703,0.1749,0.177,0.176,0.1842,0.1817,0.182,0.1823,0.1852,0.186,0.1867,0.1773,0.1773,0.1772,0,0,0.153,0.1544,0.1577,0.1594,0.1618,0.1626,0.1635,0.1658,0.1666,0.1707,0.1703,0.1731,0.1779,0.1798,0.1814,0.1871,0.1867,0.188,0.1908,0.1937,0.1944,0.195,0.1973,0.1981,0.1884,0.1884,0.1884,0,0.1548,0.159,0.1594,0.1626,0.1644,0.1639,0.1674,0.169,0.1722,0.1736,0.1724,0.1787,0.1803,0.1856,0.187,0.1882,0.1894,0.1877,0.1942,0.1948,0.1954,0.1976,0.1985,0.1886,0.1886,0.1886,0.1886,0,0.1612,0.1642,0.1666,0.1698,0.1718,0.1751,0.1762,0.1782,0.1784,0.1794,0.1838,0.1858,0.1891,0.1903,0.1904,0.1957,0.1951,0.1941,0.192,0.1964,0.1985,0.1993,0.1888,0.1888,0.1887,0.1887,0,0,0.1666,0.1702,0.1711,0.1727,0.1755,0.1779,0.1814,0.1846,0.1865,0.1888,0.1919,0.1962,0.1954,0.1972,0.1976,0.2002,0.205,0.1989,0.199,0.2002,0.2113,0.2122,0.2131,0.2047,0.2049,0.205,0.2112,0,0.1716,0.1776,0.1782,0.1836,0.1866,0.1864,0.1895,0.1917,0.1928,0.1956,0.1969,0.2001,0.1986,0.1998,0.2023,0.2038,0.2072,0.2034,0.2078,0.208,0.2074,0.2142,0.215,0.2208,0.212,0.2121,0.2122,0,0.1781,0.1807,0.1865,0.1893,0.1905,0.1932,0.1965,0.1991,0.2017,0.2024,0.2046,0.2047,0.2086,0.2064,0.2119,0.2092,0.2111,0.2122,0.2124,0.213,0.2105,0.2151,0.2226,0.2235,0.2135,0.2134,0.2133,0,0.1818,0.1867,0.1909,0.1923,0.1955,0.1975,0.199,0.2015,0.2035,0.2063,0.2077,0.211,0.2128,0.2155,0.2166,0.2148,0.2222,0.2199,0.2231,0.2231,0.2247,0.2246,0.2328,0.2256,0.2256,0.2256,0.2255,0,0.1873,0.1909,0.1926,0.1952,0.1994,0.2002,0.2044,0.2058,0.2081,0.2111,0.2111,0.214,0.2152,0.2184,0.2193,0.2239,0.2247,0.2255,0.2258,0.2256,0.2256,0.227,0.2267,0.2258,0.2257,0.2257,0.2257,0,0.1921,0.1933,0.198,0.2007,0.2016,0.2045,0.207,0.2097,0.2109,0.2148,0.2157,0.2177,0.2215,0.2228,0.2274,0.228,0.2335,0.2333,0.2326,0.2327,0.2359,0.2357,0.2454,0.2468,0.2385,0.2386,0.2386,0,0.1956,0.1984,0.2016,0.2036,0.2052,0.2084,0.2105,0.2116,0.2138,0.2173,0.2196,0.2233,0.2264,0.2325,0.2344,0.238,0.2381,0.2412,0.2386,0.2385,0.2384,0.2383,0.2388,0.2418,0.2418,0.2419,0.242,0,0.2019,0.2025,0.2054,0.2088,0.2114,0.2141,0.2167,0.2184,0.2199,0.2225,0.2263,0.2287,0.2335,0.2374,0.2411,0.2428,0.2428,0.2428,0.2438,0.2437,0.2433,0.2439,0.2342,0.2426,0.2425,0.2425,0.2424,0.2424,0.2063,0.2089,0.2117,0.2151,0.2172,0.2198,0.2225,0.2242,0.2274,0.2314,0.2318,0.2361,0.239,0.2441,0.246,0.2495,0.2487,0.25,0.2504,0.2508,0.2511,0.2427,0.2502,0.2502,0.2502,0.2501,0.2501,0,0.2128,0.2146,0.2178,0.2215,0.2244,0.224,0.227,0.2294,0.2332,0.2359,0.239,0.2437,0.2475,0.2498,0.2538,0.2562,0.2563,0.2572,0.2571,0.2576,0.2515,0.2504,0.2571,0.2571,0.2571,0.2571,0.2571,0.2571,0.2165,0.221,0.222,0.2277,0.2295,0.2336,0.2355,0.2379,0.2401,0.2454,0.2485,0.25,0.2528,0.2569,0.2606,0.2612,0.2628,0.2638,0.2644,0.2587,0.258,0.2573,0.2563,0.2641,0.2641,0.2702,0.2703,0.2703]},{"header":{"parameterUnit":"m.s-1","parameterCategory":1,"la1":30.2991,"la2":30.254,"lo1":-89.0895,"lo2":-89.0444,"dy":0.0017,"dx":0.0017,"nx":28,"ny":28,"refTime":"2025-08-29T03:00:00:Z","depth":0,"parameterNumber":3,"parameterNumberName":"V-component_of_WINDS"},"data":[0,0,0,0,0,0,0,0,0,0,0,0,0,0,0,0,0,0,0,0,0,0,0,0,0,0,0,0,0,0,0,0,0,0,0,0,0,0,0,0,0,0,0,0,0,0,0,0,0,0,0,0,0,0,0,0,0,0,-2.5755,-2.5754,0,-2.5718,-2.5717,-2.5717,-2.5718,-2.5718,-2.5719,-2.5719,-2.5676,-2.5674,-2.5673,0,0,0,0,0,0,0,0,0,0,0,0,0,-2.5821,-2.582,-2.5755,-2.5754,-2.5754,-2.5718,-2.5717,-2.5717,-2.5718,-2.5718,-2.5719,-2.572,-2.5677,-2.5675,-2.5673,0,0,0,0,0,0,0,0,0,0,0,0,0,-2.5789,-2.5819,-2.5755,-2.575,-2.5749,-2.5718,-2.5717,-2.5716,-2.5718,-2.5718,-2.5719,-2.572,-2.5677,-2.5675,-2.5672,-2.5641,0,0,-2.5665,-2.5664,0,0,0,0,0,0,0,0,-2.5791,-2.5786,-2.5751,-2.575,-2.575,-2.5723,-2.5725,-2.5691,-2.5717,-2.573,-2.5719,-2.572,-2.5691,-2.5687,-2.5678,-2.5639,-2.5637,-2.5665,-2.5663,-2.5662,-2.5661,0,0,0,0,0,0,0,-2.5793,-2.5788,-2.574,-2.5751,-2.575,-2.5748,-2.5744,-2.5718,-2.5706,-2.5729,-2.5729,-2.5724,-2.569,-2.5681,-2.5677,-2.5637,-2.5665,-2.5663,-2.5661,-2.566,-2.5567,-2.5566,0,0,0,0,0,0,-2.5797,-2.579,-2.5741,-2.5739,-2.5773,-2.5746,-2.5742,-2.5731,-2.5706,-2.5703,-2.5724,-2.5725,-2.5685,-2.568,-2.5676,-2.5636,-2.5662,-2.566,-2.5658,-2.5568,-2.5567,-2.5566,0,0,0,0,0,0,-2.5798,-2.5792,-2.5743,-2.5764,-2.5758,-2.5744,-2.5732,-2.573,-2.572,-2.5703,-2.57,-2.5717,-2.5685,-2.5679,-2.565,-2.5634,-2.5659,-2.5656,-2.5569,-2.5568,-2.5566,-2.5557,0,0,0,0,0,0,-2.58,-2.5793,-2.5782,-2.5764,-2.5757,-2.5719,-2.5731,-2.5728,-2.5716,-2.5717,-2.5695,-2.5692,-2.5685,-2.5653,-2.5647,-2.5631,-2.5654,-2.5571,-2.5569,-2.5567,-2.5558,-2.5555,-2.5552,0,0,0,0,0,-2.5802,-2.5781,-2.5782,-2.5776,-2.5744,-2.5718,-2.5713,-2.5707,-2.5715,-2.5703,-2.5692,-2.5693,-2.5637,-2.565,-2.5643,-2.5627,-2.5571,-2.5569,-2.5567,-2.5559,-2.5556,-2.5552,0,0,0,0,0,0,-2.5796,-2.5778,-2.5779,-2.5751,-2.5736,-2.5718,-2.5703,-2.5704,-2.5685,-2.5686,-2.5678,-2.5672,-2.5642,-2.5632,-2.5646,-2.5594,-2.5605,-2.5601,-2.5602,-2.5598,-2.5595,-2.5597,-2.5652,0,0,0,0,0,-2.5792,-2.5774,-2.5759,-2.5735,-2.5728,-2.5717,-2.5706,-2.5702,-2.5685,-2.5679,-2.5665,-2.5647,-2.5625,-2.5611,-2.5591,-2.5557,-2.5551,-2.5542,-2.5539,-2.5537,-2.5533,-2.5512,-2.5507,-2.5559,-2.5559,-2.5559,0,0,-2.5782,-2.577,-2.5759,-2.5734,-2.5722,-2.5702,-2.5712,-2.569,-2.5675,-2.5675,-2.5646,-2.5635,-2.5615,-2.5582,-2.5567,-2.5572,-2.5517,-2.5534,-2.5532,-2.5529,-2.5509,-2.5504,-2.5499,-2.5557,-2.5557,-2.5558,0,0,-2.5753,-2.5744,-2.5722,-2.571,-2.5692,-2.5685,-2.568,-2.5661,-2.5654,-2.5626,-2.5625,-2.5605,-2.5569,-2.5553,-2.5541,-2.5505,-2.5504,-2.5498,-2.5482,-2.5462,-2.5457,-2.5454,-2.5439,-2.5434,-2.5495,-2.5495,-2.5495,0,-2.5743,-2.5715,-2.5711,-2.5689,-2.5677,-2.5678,-2.5654,-2.5642,-2.5617,-2.5608,-2.5615,-2.5568,-2.5554,-2.5517,-2.5508,-2.5499,-2.549,-2.55,-2.5459,-2.5455,-2.5451,-2.5437,-2.5431,-2.5494,-2.5494,-2.5495,-2.5495,0,-2.5701,-2.5682,-2.5666,-2.5644,-2.563,-2.5607,-2.5598,-2.5584,-2.5581,-2.5572,-2.5541,-2.5525,-2.55,-2.5491,-2.5488,-2.5453,-2.5456,-2.5461,-2.5472,-2.5446,-2.5432,-2.5426,-2.5493,-2.5494,-2.5494,-2.5494,0,0,-2.5668,-2.5643,-2.5637,-2.5626,-2.5606,-2.5589,-2.5566,-2.5543,-2.553,-2.5513,-2.5491,-2.546,-2.5463,-2.5449,-2.5444,-2.5426,-2.5396,-2.5433,-2.5432,-2.5424,-2.5353,-2.5348,-2.5342,-2.5396,-2.5395,-2.5394,-2.5354,0,-2.5635,-2.5596,-2.5591,-2.5555,-2.5535,-2.5535,-2.5514,-2.5498,-2.5489,-2.5469,-2.5458,-2.5435,-2.5443,-2.5434,-2.5417,-2.5404,-2.5381,-2.5407,-2.5373,-2.5372,-2.5376,-2.5335,-2.533,-2.5293,-2.5348,-2.5348,-2.5347,0,-2.5593,-2.5575,-2.5538,-2.5518,-2.551,-2.5492,-2.5469,-2.5451,-2.5432,-2.5426,-2.541,-2.5407,-2.5379,-2.5393,-2.5354,-2.5371,-2.5357,-2.5348,-2.5347,-2.5342,-2.5357,-2.5326,-2.5281,-2.5274,-2.5339,-2.5339,-2.534,0,-2.5569,-2.5536,-2.5509,-2.55,-2.5477,-2.5464,-2.5454,-2.5436,-2.5421,-2.5401,-2.5391,-2.5367,-2.5354,-2.5334,-2.5324,-2.5335,-2.5284,-2.5297,-2.5276,-2.5276,-2.5264,-2.5265,-2.5214,-2.5259,-2.5259,-2.5259,-2.5259,0,-2.5533,-2.5509,-2.5498,-2.5481,-2.5453,-2.5447,-2.5419,-2.5409,-2.5392,-2.5371,-2.537,-2.535,-2.5338,-2.5315,-2.5307,-2.5274,-2.5269,-2.5261,-2.5259,-2.526,-2.5261,-2.525,-2.5251,-2.5258,-2.5258,-2.5258,-2.5258,0,-2.5501,-2.5493,-2.5463,-2.5444,-2.5439,-2.5419,-2.5402,-2.5384,-2.5375,-2.5348,-2.5342,-2.5326,-2.53,-2.5288,-2.5254,-2.5249,-2.521,-2.5211,-2.5217,-2.5216,-2.5195,-2.5196,-2.5133,-2.5123,-2.5177,-2.5176,-2.5176,0,-2.5478,-2.5459,-2.5439,-2.5426,-2.5415,-2.5394,-2.5379,-2.5372,-2.5356,-2.5332,-2.5317,-2.529,-2.5268,-2.5225,-2.5209,-2.5183,-2.5181,-2.5161,-2.5177,-2.5179,-2.5178,-2.5178,-2.5175,-2.5157,-2.5157,-2.5157,-2.5156,0,-2.5436,-2.5433,-2.5413,-2.5391,-2.5374,-2.5357,-2.5339,-2.5328,-2.5317,-2.5299,-2.5273,-2.5256,-2.5222,-2.5194,-2.5167,-2.5153,-2.5151,-2.5152,-2.5145,-2.5145,-2.5148,-2.5144,-2.5207,-2.5152,-2.5153,-2.5153,-2.5153,-2.5153,-2.5406,-2.5389,-2.5372,-2.5349,-2.5335,-2.5319,-2.53,-2.5289,-2.5267,-2.524,-2.5237,-2.5207,-2.5186,-2.5149,-2.5135,-2.511,-2.5115,-2.5106,-2.5103,-2.51,-2.5097,-2.5154,-2.5105,-2.5105,-2.5105,-2.5105,-2.5105,0,-2.5362,-2.5351,-2.533,-2.5306,-2.5288,-2.529,-2.527,-2.5254,-2.5229,-2.521,-2.5189,-2.5157,-2.513,-2.5112,-2.5084,-2.5067,-2.5066,-2.506,-2.506,-2.5056,-2.5096,-2.5104,-2.5062,-2.5062,-2.5062,-2.5062,-2.5062,-2.5062,-2.5337,-2.5308,-2.5302,-2.5265,-2.5253,-2.5226,-2.5214,-2.5197,-2.5182,-2.5147,-2.5125,-2.5114,-2.5095,-2.5065,-2.504,-2.5035,-2.5023,-2.5017,-2.5012,-2.5049,-2.5054,-2.5058,-2.5065,-2.5015,-2.5015,-2.4974,-2.4974,-2.4973]}]]